Location: Catstown
(52.4386°N, 7.2633°W)
Time: 17:19:31
(UTC+00:00)

Cosmos 909 Rocket - Pass Details

Date: 18 September 2020
Orbit: 991 x 2088 km, 65.9° (Epoch: 30 October)

Event Time Altitude Azimuth Distance (km) Brightness Sun altitude
Rises 21:36:30 0° 317° (NW) 4,043 8.6 -25.9°
Reaches altitude 10° 21:39:21 10° 320° (NW) 2,971 7.5 -26.2°
Maximum altitude 21:46:06 69° 44° (NE) 1,077 4.1 -26.9°
Enters shadow 21:47:01 61° 91° (E) 1,132 4.0 -27.0°
